AEROCUBE 12B (43557 NORAD) Tracking and Keplerian Element Data

This shows tracking and keplerian element data for the satellite.

Feedback or suggestion? Click here.




ElementValue
Catalog43557
NameAEROCUBE 12B
Epoch Orbit17870
Epoch Day269.57719623
Epoch Year2021
RAAN24.1681
Inclination51.6424
Eccentricity0.000768
Argument of Perigee162.7365
Mean Anonmoly197.3879
Mean Motion15.31795299
Decay Rate5.678E-05
L11 43557U 18046D 21269.57719623 .00005678 00000-0 19382-3 0 9995
L22 43557 51.6424 24.1681 0007680 162.7365 197.3879 15.31795299178709

Live tracking and technical data element details for AEROCUBE 12B (NORAD 43557). AEROCUBE 12B can be tracked NOW for your location showing map with azimuth and elevation plus other details from your city location.

Track the satellite on the map from your city or location and see movement details for azimuth, elevation, latitude, longitude, range, height, and movement on the map or in text.







IsCatalogInMostPopularTable: catalog: 43557, numindb: 573
Update: records affected: 1



GetName: 43557 AEROCUBE 12B

Hit Count: updated at: Mon, 27 Sep 2021 22:08:56 GMT